Location: algorfa
(38.0849°N, 0.7965°W)
Time: 15:36:21
(UTC+02:00)

Envisat - Visible Passes

Search period start: 29 September 2022 00:00
Search period end: 09 October 2022 00:00
Orbit: 764 x 765 km, 98.2° (Epoch: 28 September)

Date Brightness Start Highest point End Pass type
(mag) Time Alt. Az. Time Alt. Az. Time Alt. Az.
29 Sep 5.6 05:13:33 10° NE 05:16:45 17° E 05:19:55 10° SE visible
29 Sep 3.1 06:51:06 10° N 06:56:01 51° WNW 07:00:55 10° SSW visible
30 Sep 3.2 06:14:03 10° NNE 06:19:08 69° ESE 06:24:11 10° S visible
01 Oct 4.8 05:37:37 10° NE 05:42:03 29° E 05:46:26 10° SSE visible
01 Oct 3.8 07:16:36 10° N 07:20:58 29° WNW 07:25:18 10° SW visible
02 Oct 5.9 05:02:38 10° ENE 05:04:46 13° E 05:06:53 10° ESE visible
02 Oct 2.9 06:39:09 10° N 06:44:12 67° WNW 06:49:14 10° SSW visible
03 Oct 3.7 06:02:17 10° NNE 06:07:16 53° E 06:12:12 10° S visible
04 Oct 5.2 05:26:08 10° NE 05:30:07 23° E 05:34:04 10° SE visible
04 Oct 3.5 07:04:31 10° N 07:09:11 38° WNW 07:13:50 10° SW visible
05 Oct 2.9 06:27:16 10° NNE 06:32:23 87° WNW 06:37:27 10° SSW visible
06 Oct 4.2 05:50:35 10° NNE 05:55:21 40° E 06:00:07 10° SSE visible
06 Oct 4.2 07:30:13 10° NNW 07:34:04 22° WNW 07:37:55 10° WSW visible
07 Oct 5.5 05:14:48 10° NE 05:18:10 18° E 05:21:30 10° SE visible
07 Oct 3.2 06:52:31 10° N 06:57:24 49° WNW 07:02:15 10° SW visible
08 Oct 3.2 06:15:26 10° NNE 06:20:31 73° ESE 06:25:35 10° S visible
